TimeCST,TemperatureF,Dew PointF,Humidity,Sea Level PressureIn,VisibilityMPH,Wind Direction,Wind SpeedMPH,Gust SpeedMPH,PrecipitationIn,Events,Conditions,WindDirDegrees,DateUTC
12:15 AM,41.0,37.4,87,29.83,7.0,Calm,Calm,-,N/A,,Unknown,0,2012-12-18 06:15:00
12:35 AM,41.0,37.4,87,29.83,7.0,NW,4.6,-,N/A,,Unknown,310,2012-12-18 06:35:00
12:55 AM,41.0,37.4,87,29.84,10.0,WNW,4.6,-,N/A,,Overcast,300,2012-12-18 06:55:00
1:15 AM,41.0,37.4,87,29.83,10.0,Calm,Calm,-,N/A,,Overcast,0,2012-12-18 07:15:00
1:35 AM,41.0,37.4,87,29.85,10.0,West,3.5,-,N/A,,Unknown,260,2012-12-18 07:35:00
1:55 AM,41.0,35.6,81,29.86,10.0,Calm,Calm,-,N/A,,Overcast,0,2012-12-18 07:55:00
2:15 AM,41.0,35.6,81,29.86,10.0,Calm,Calm,-,N/A,,Overcast,0,2012-12-18 08:15:00
2:35 AM,41.0,35.6,81,29.85,10.0,Calm,Calm,-,N/A,,Overcast,0,2012-12-18 08:35:00
2:55 AM,41.0,35.6,81,29.86,10.0,NNW,4.6,-,N/A,,Overcast,330,2012-12-18 08:55:00
3:15 AM,41.0,33.8,76,29.85,10.0,NW,4.6,-,N/A,,Overcast,320,2012-12-18 09:15:00
3:35 AM,41.0,32.0,70,29.86,10.0,WNW,3.5,-,N/A,,Overcast,300,2012-12-18 09:35:00
3:55 AM,39.2,32.0,75,29.86,10.0,Calm,Calm,-,N/A,,Mostly Cloudy,0,2012-12-18 09:55:00
4:15 AM,37.4,32.0,81,29.86,10.0,Calm,Calm,-,N/A,,Scattered Clouds,0,2012-12-18 10:15:00
4:35 AM,33.8,32.0,93,29.86,10.0,Calm,Calm,-,N/A,,Clear,0,2012-12-18 10:35:00
4:55 AM,33.8,33.8,100,29.87,7.0,Calm,Calm,-,N/A,,Clear,0,2012-12-18 10:55:00
5:15 AM,33.8,32.0,93,29.86,7.0,Calm,Calm,-,N/A,,Clear,0,2012-12-18 11:15:00
5:35 AM,32.0,32.0,100,29.87,7.0,Calm,Calm,-,N/A,,Clear,0,2012-12-18 11:35:00
6:53 AM,33.8,33.8,100,29.88,10.0,SSE,5.8,-,N/A,,Clear,160,2012-12-18 12:53:00
7:53 AM,37.4,35.6,93,29.86,15.0,SSE,8.1,-,N/A,,Clear,150,2012-12-18 13:53:00
8:54 AM,41.0,37.4,87,29.86,20.0,South,8.1,-,N/A,,Clear,170,2012-12-18 14:54:00
9:56 AM,46.4,37.4,71,29.87,20.0,South,13.8,-,N/A,,Clear,180,2012-12-18 15:56:00
10:51 AM,48.2,39.2,71,29.86,20.0,South,15.0,-,N/A,,Partly Cloudy,190,2012-12-18 16:51:00
11:56 AM,51.8,37.4,58,29.82,20.0,South,15.0,-,N/A,,Clear,190,2012-12-18 17:56:00
12:55 PM,53.6,37.4,54,29.78,20.0,South,17.3,-,N/A,,Clear,190,2012-12-18 18:55:00
1:55 PM,55.4,37.4,51,29.77,20.0,SSW,17.3,-,N/A,,Clear,200,2012-12-18 19:55:00
2:55 PM,55.4,37.4,51,29.77,20.0,SSW,11.5,-,N/A,,Clear,210,2012-12-18 20:55:00
3:55 PM,55.4,39.2,54,29.76,20.0,SSW,11.5,-,N/A,,Clear,200,2012-12-18 21:55:00
6:55 PM,51.8,42.8,71,29.83,10.0,SSW,8.1,-,N/A,,Clear,210,2012-12-19 00:55:00
7:15 PM,50.0,42.8,76,29.83,10.0,SSW,9.2,-,N/A,,Clear,210,2012-12-19 01:15:00
7:35 PM,50.0,41.0,71,29.84,10.0,SSW,8.1,-,N/A,,Clear,210,2012-12-19 01:35:00
7:55 PM,50.0,42.8,76,29.85,10.0,SSW,6.9,-,N/A,,Clear,210,2012-12-19 01:55:00
8:15 PM,48.2,42.8,82,29.85,10.0,SSW,9.2,-,N/A,,Clear,200,2012-12-19 02:15:00
8:35 PM,50.0,42.8,76,29.86,10.0,SSW,8.1,-,N/A,,Clear,210,2012-12-19 02:35:00
8:55 PM,50.0,42.8,76,29.86,10.0,SSW,8.1,-,N/A,,Clear,200,2012-12-19 02:55:00
9:15 PM,50.0,42.8,76,29.87,10.0,SW,5.8,-,N/A,,Clear,220,2012-12-19 03:15:00
9:35 PM,50.0,42.8,76,29.88,10.0,SSW,6.9,-,N/A,,Clear,210,2012-12-19 03:35:00
9:55 PM,50.0,42.8,76,29.88,10.0,SW,5.8,-,N/A,,Clear,230,2012-12-19 03:55:00
10:15 PM,48.2,42.8,82,29.88,10.0,SW,4.6,-,N/A,,Clear,230,2012-12-19 04:15:00
10:35 PM,48.2,42.8,82,29.88,10.0,WSW,3.5,-,N/A,,Clear,240,2012-12-19 04:35:00
10:55 PM,48.2,42.8,82,29.90,10.0,WSW,5.8,-,N/A,,Clear,250,2012-12-19 04:55:00
11:15 PM,46.4,42.8,87,29.90,10.0,Calm,Calm,-,N/A,,Clear,0,2012-12-19 05:15:00
11:35 PM,46.4,42.8,87,29.90,10.0,Calm,Calm,-,N/A,,Clear,0,2012-12-19 05:35:00
11:55 PM,44.6,41.0,87,29.91,10.0,Calm,Calm,-,N/A,,Clear,0,2012-12-19 05:55:00